Regional Weather Roundup
Issued by NWS San Angelo, TX

Home | Current Version | Previous Version | Text Only | Print | Product List | Glossary On
Versions: 1 2 3 4 5 6 7 8 9 10 11 12 13 14 15 16 17 18 19 20 21 22 23 24 25 26 27 28 29 30 31 32 33 34 35 36 37 38 39 40 41 42 43 44 45 46 47 48 49 50
000
ASUS44 KSJT 270110
RWRSJT
WEST CENTRAL TEXAS REGIONAL WEATHER ROUNDUP
NATIONAL WEATHER SERVICE SAN ANGELO TX
800 PM CDT SUN MAR 26 2017

NOTE: "FAIR" INDICATES FEW OR NO CLOUDS BELOW 12,000 FEET WITH NO
SIGNIFICANT WEATHER AND/OR OBSTRUCTIONS TO VISIBILITY.

TXZ049-054-064>066-071>073-076>078-098-099-113-114-127-128-139-140-
154-155-168>170-270200
...LOCATIONS ACROSS WEST CENTRAL TEXAS...

CITY           SKY/WX    TMP DP  RH WIND       PRES   REMARKS
SAN ANGELO     CLEAR     77  28  16 W8        29.76R
ABILENE        PTCLDY    75  32  20 SW3       29.76R
DYESS AFB      CLEAR     74  36  24 W7        29.74S
JUNCTION       CLEAR     82  51  34 S8        29.76R
SWEETWATER     CLEAR     74  26  16 W6        29.80R
BROWNWOOD      CLEAR     73  46  38 NW8       29.73R
COLEMAN        PTCLDY    77  33  19 NW7       29.74F
SONORA         CLEAR     79  30  17 CALM      29.81S
OZONA            N/A     79  28  15 MISG      29.80R
BRADY          NOT AVBL
$$

TEXAS PANHANDLE/OKLAHOMA PANHANDLE

CITY           SKY/WX    TMP DP  RH WIND       PRES   REMARKS
AMARILLO       CLEAR     55  38  52 N15       29.85R
BORGER         CLEAR     52  39  61 NW15G26   29.87R
CANADIAN       CLEAR     58  45  62 N21G29    29.81R
DALHART        CLEAR     53  38  56 NE15      29.89R
DUMAS          CLEAR     47  37  66 N14G20    29.88R
GUYMON         NOT AVBL
HEREFORD       CLEAR     60  39  45 NE16G24   29.86R
PAMPA          CLEAR     55  40  58 N17G25    29.85R
PERRYTON       MOCLDY    53  43  69 N22G28    29.84R
$$

SOUTHERN PANHANDLE/SOUTH PLAINS/ROLLING PLAINS

CITY           SKY/WX    TMP DP  RH WIND       PRES   REMARKS
LUBBOCK        PTCLDY    72  23  16 W12       29.78R
SNYDER         CLEAR     74  28  18 W8        29.78R
CHILDRESS      MOCLDY    75  28  17 W13       29.70R
SEMINOLE       CLEAR     71  16  12 CALM      29.83R
$$

PERMIAN BASIN

CITY           SKY/WX    TMP DP  RH WIND       PRES   REMARKS
MIDLAND        CLEAR     76  19  11 W13       29.81R
ODESSA           N/A    N/A N/A N/A MISG      29.83R
WINK           CLEAR     77  17  10 W16       29.81R
$$

FAR WEST/SOUTHWEST MOUNTAINS/TRANS PECOS

CITY           SKY/WX    TMP DP  RH WIND       PRES   REMARKS
ALPINE         CLEAR     73  18  13 W13       29.98R
DRYDEN           N/A     86  12   6 W10       29.77R
EL PASO        FAIR      72  14  11 W18       29.91R
FORT STOCKTON  CLEAR     77  23  13 NW15G26   29.84R
GUADALUPE PASS   N/A    N/A N/A N/A MISG        N/A
MARFA          CLEAR     69  21  16 NW10      29.97R
PECOS          CLEAR     76  24  14 W15       29.83R
$$

DALLAS/FORT WORTH METROPLEX

CITY           SKY/WX    TMP DP  RH WIND       PRES   REMARKS
DFW AIRPORT    CLOUDY    80  59  48 S25G35    29.67F THUNDER
FTW MEACHAM    CLOUDY    79  59  50 S18G26    29.68R
DAL-EXECUTIVE  CLOUDY    79  58  48 S14       29.70F
GRAND PRAIRIE  CLEAR     79  57  47 SE16G24   29.71F
ADDISON        MOCLDY    79  57  47 SE20G28   29.69F THUNDER
MESQUITE       MOCLDY    77  55  47 SE15G22   29.71F
LANCASTER      CLOUDY    76  57  51 SE16G26   29.69F
$$

NORTH CENTRAL TEXAS

CITY           SKY/WX    TMP DP  RH WIND       PRES   REMARKS
SHRMAN/DENISON CLOUDY    75  59  56 SE17G24   29.71R THUNDER
GAINESVILLE    DRIZZLE   70  63  77 W10G18    29.73R
BRIDGEPORT     CLOUDY    67  67 100 CALM      29.73S THUNDER
DENTON         TSTM      67  63  87 E21G32    29.69S FOG
WAXAHACHIE     CLOUDY    77  60  54 SE16G25   29.70F
GRANBURY       CLOUDY    74  60  61 SE17G30   29.72R
$$

WESTERN NORTH TEXAS

CITY           SKY/WX    TMP DP  RH WIND       PRES   REMARKS
WICHITA FALLS  CLOUDY    71  41  33 SW8       29.67S
VERNON           N/A    N/A N/A N/A S13       29.68S
BRECKENRIDGE   MOCLDY    76  34  21 W5        29.73S HAZE
COMANCHE       CLEAR     78  51  39 N3        29.73R
$$

CENTRAL AND SOUTH CENTRAL TEXAS

CITY           SKY/WX    TMP DP  RH WIND       PRES   REMARKS
AUSTIN/BERGSTM PTCLDY    78  62  57 S16G24    29.76F
WACO           MOCLDY    78  58  49 SE20G28   29.74R
HILLSBORO      CLOUDY    78  60  54 SE20      29.72F
TEMPLE         PTCLDY    77  64  64 SE20G26   29.74R
KILLEEN-GRAY   CLEAR     77  56  48 SE16      29.71F
FORT HOOD      CLEAR     77  58  52 S16G22    29.69F
GEORGETOWN     CLEAR     81  55  41 S10G18    29.76R
LAGO VISTA     FAIR      77  57  50 S10       29.79R
SAN MARCOS     PTCLDY    75  64  69 S18G26    29.77F
NEW BRAUNFELS  MOCLDY    78  65  63 SE23G29   29.75S
RANDOLPH AFB   PTCLDY    76  66  72 SE14      29.77R
SAN ANTONIO    PTCLDY    77  65  66 SE16G25   29.77R
STINSON        MOCLDY    78  66  66 SE13      29.75R
PLEASANTON     NOT AVBL
LA GRANGE      PTCLDY    76  68  77 S10G16    29.78R
GIDDINGS       PTCLDY    75  65  69 S8G18     29.81R
$$

EAST TEXAS

CITY           SKY/WX    TMP DP  RH WIND       PRES   REMARKS
PARIS          CLOUDY    75  57  53 SE15      29.76S
CLARKSVILLE    NOT AVBL
TYLER          MOCLDY    76  55  48 S9        29.79R
LONGVIEW       PTCLDY    75  60  59 SE12      29.80S
PALESTINE      PTCLDY    76  61  59 SE10G16   29.81R
NACOGDOCHES    CLOUDY    75  59  57 S10G23    29.83S
$$

TEXAS HILL COUNTRY AND EDWARDS PLATEAU

CITY           SKY/WX    TMP DP  RH WIND       PRES   REMARKS
LLANO          CLEAR     81  55  41 S6        29.77R
HORSESHOE BAY  FAIR      78  56  46 S8        29.76R
KERRVILLE      CLEAR     76  61  58 S7        29.80R
FREDERICKSBRG  CLEAR     75  54  47 S7        29.79R
ROCKSPRINGS    CLEAR     77  54  44 CALM      29.83R
HONDO          CLEAR     82  58  43 SE8       29.75R
UVALDE         CLEAR     81  60  47 CALM      29.74R
DEL RIO        CLEAR     84  44  24 E5        29.72R
$$

SOUTHEAST TEXAS

CITY           SKY/WX    TMP DP  RH WIND       PRES   REMARKS
COLLEGE STN    CLEAR     76  62  62 S15       29.79F
CALDWELL       NOT AVBL
CROCKETT       CLOUDY    73  63  68 SE13      29.85R
BRENHAM        PTCLDY    77  66  69 SE12G18   29.82R
HUNTSVILLE     PTCLDY    76  63  64 VRB6G18   29.81F
CONROE         PTCLDY    73  65  75 SE13      29.85S
HOUSTON BUSH   MOCLDY    75  65  70 SE15      29.85S
HOUSTON HOBBY  PTCLDY    73  66  78 S10       29.85S
PERLAND        PTCLDY    75  67  76 S10       29.88S
WHARTON        MOCLDY    73  65  75 S13G18    29.85R
$$

THE UPPER TEXAS COAST

CITY           SKY/WX    TMP DP  RH WIND       PRES   REMARKS
ORANGE         CLOUDY    73  69  87 S10       29.92S
PORT ARTHUR    CLOUDY    73  67  81 SE12      29.89S
GALVESTON      CLEAR     74  70  87 S12       29.88S
ANGLETON       PTCLDY    74  68  81 S17G23    29.86S
BAY CITY       PTCLDY    73  69  85 SE10      29.85S
$$

TEXAS COASTAL BEND, RIO GRANDE PLAINS DEEP SOUTH TEXAS

CITY           SKY/WX    TMP DP  RH WIND       PRES   REMARKS
VICTORIA       CLOUDY    75  67  76 S21       29.82R
BEEVILLE       CLOUDY    76  75  95 SE20G25   29.78S
ROCKPORT       PTCLDY    74  69  85 SE14G26   29.80F
PORT ARANSAS   PTCLDY    73  69  89 SE15      29.80F
PORT LAVACA    MOCLDY    73  70  90 SE15G22   29.82F
CORPUS CHRISTI PTCLDY    75  69  81 SE21      29.79R
KINGSVILLE NAS MOCLDY    75  71  87 SE18G35   29.77S
COTULLA        CLEAR     86  56  35 SE12      29.70R
LAREDO         CLEAR     86  66  51 SE16      29.69S
BROWNSVILLE    MOCLDY    77  69  76 SE17G28   29.80R
PORT ISABEL    CLOUDY    77  70  79 SE16      29.79R
HEBBRONVILLE   CLEAR     80  64  57 S13       29.75S
MCALLEN        CLOUDY    80  69  69 SE23G30   29.76R
WESLACO        CLOUDY    78  69  74 S20G26    29.76R
FALFURRIAS     CLEAR     81  66  60 SE10      29.75R
EDINBURG       MOCLDY    80  68  66 SE17G23   29.76R
$$




USA.gov is the U.S. government's official web portal to all federal, state and local government web resources and services.